{"data":{"norad_id":48062,"epoch":"2026-05-25T04:26:51.369792Z","epoch_age_seconds":62262,"freshness":"FRESH","line1":"1 48062U 21025W   26145.18531678  .00000282  00000+0  73780-3 0  9996","line2":"2 48062  87.8951 324.7952 0001617  97.8598 262.2715 13.13468945250582","mean_motion":13.13468945,"eccentricity":0.0001617,"inclination_deg":87.8951,"raan_deg":324.7952,"arg_perigee_deg":97.8598,"mean_anomaly_deg":262.2715,"bstar":0.0007378,"rev_number":25058,"period_min":109.63334957265,"perigee_km":1208.5424985772,"apogee_km":1210.9964275273,"semimajor_km":7587.9064630523,"source":"CELESTRAK","updated_at":"2026-05-25T13:38:22.391870Z"}}